COSMOS 1275 DEB, 42172

Orbit data source: Space-Track

COSMOS 1275 DEB, 42172 is space debris in LEO originally from a launch on Thu, 04 Jun 1981 UTC launched from the Plesetsk Missile And Space Complex (PKMTR). Debris objects in space refer to the collection of defunct objects orbiting the Earth. Examples of debris include non-operational satellites, rocket bodies, and fragments generated from explosions, collisions, or faulty payload assembly.

Loading next visibility...
Identifier
42172, 1981-053SL
Orbit
LEO
Country
Flag of CISCIS
Related business
Manufacturer
Unknown
Mission
Spacecraft
Bus & Motor
Unknown
Mass
Unknown
Launch date (UTC)
1981-06-04 (45 years ago)
Launch vehicle
Unknown
Launch site
Plesetsk Missile And Space Complex (PKMTR)
Object type
Payload
Rocket body
Debris
Shape & HBR
Unknown shape, 0.1 m
Radar Cross Section
Small (<0.1 m²)

Expand to show TLE details & history
Last TLE update: 1 week ago

TLE from 1 week ago
0 COSMOS 1275 DEB
1 42172U 81053SL  26136.80043646  .00001663  00000-0  90528-3 0  9995
2 42172  82.9436 330.8332 0070237 104.9412 255.9554 14.10427608638928
Epoch: 2026-05-16T19:12Z
TLE epoch observation values (Epoch: 2026-05-16T19:12:37.710Z)
Latitude
-0.00002°
Longitude
168.16387°
Altitude
873.53 km
Speed
7.409 km/s
True Right ascension
22h 03m 19s
True Declination
0° 00' 00"
Sunlit
Object was in daylight at epoch
Visualization orbit readout
Latitude
Unknown
Longitude
Unknown
Altitude
Unknown
Speed
Unknown
Apparent Right ascension
Unknown
Apparent Declination
Unknown
Sunlit
N/A
Visualization observer readout
Local Sidereal Time
06:26:47
Azimuth
Unknown
Elevation
Unknown
Doppler factor
Unknown
Orbital elements
Apogee altitude
905.812 km
Perigee altitude
804.205 km
Semi-major axis
7,233.145 km
Eccentricity
0.00702
Inclination
82.9436°
RAAN
330.8332°
Arg. of periapsis
104.9412°
True anomaly
255.17629°
Mean anomaly
255.9554°
Eccentric anomaly
255.56567°
Mean motion
3.52819 °/min
Orbital period
102.04 mins
BSTAR
0.00090528
Loading maneuver chart data...
Computing Atmospheric mass density...
Loading historical data...
Loading historical data...
Loading historical data...
Loading historical data...
Loading historical data...
Loading historical data...
Loading historical data...

Documentation

Showing up to 5 results
|